Location: ??????????
(54.7560°N, 39.1389°E)
Time: 06:11:39
(UTC+00:00)

Cosmos 1470 - Pass Details

Date: 19 May 2025
Orbit: 455 x 466 km, 82.5° (Epoch: 15 June)

Event Time Altitude Azimuth Distance (km) Brightness Sun altitude
Rises 21:28:37 0° 340° (NNW) 2,519 7.5 -15.3°
Reaches altitude 10° 21:30:54 10° 328° (NNW) 1,639 6.1 -15.2°
Maximum altitude 21:33:57 27° 269° (W) 944 4.0 -15.2°
Enters shadow 21:35:22 20° 232° (SW) 1,131 4.0 -15.2°
